Location: Newark
(44.3449°N, 4.8694°E)
Time: 00:04:36
(UTC+00:00)

Envisat - Pass Details

Date: 20 January 2020
Orbit: 764 x 766 km, 98.1° (Epoch: 24 February)

Event Time Altitude Azimuth Distance (km) Brightness Sun altitude
Rises 05:56:59 0° 19° (NNE) 3,243 6.3 -13.0°
Reaches altitude 10° 05:59:24 10° 25° (NNE) 2,312 5.6 -12.6°
Maximum altitude 06:04:17 46° 99° (E) 1,025 4.2 -11.8°
Drops below altitude 10° 06:09:08 10° 172° (S) 2,294 5.8 -10.9°
Sets 06:11:31 0° 178° (S) 3,215 6.5 -10.5°
